EIKY

Kerry Airport

Airport
ICAO code
EIKY
Summary
ICAO Region
EUR
ICAO Territory
Location

Farranfore, Killarney,

Elevation
112 ft
Coordinates
52° 10' 51" N , 9° 31' 26" W
KCC
Airport WX
Fog
Metar
Observation
EIKY 270830Z 00000KT 9999 BKN035 04/03 Q1035
Station
Kerry Airport
Date/Time
2023-01-27 08:30:00
Wind direction
Wind speed
00 kts
Lowest cloud amount
broken clouds
Temperature
4°C
Dew point
3°C
Humidity
93%
QNH
1035 hPa
Weather condition
n/a

Description

Small airport 7 nm north of Killarney, Ireland.

Climatology

Temperate Marine climate/Oceanic climate (Köppen climate classification Cfb). Moderately cool summer and comparatively warm winter with a temperature range of only 14°C. Prevailing south-westerly winds from the Atlantic Ocean.

Runways

Designator Length Width Surface Rops
7/25 1230 30 ASP No/No
8/26 2000 45 ASP Yes/Yes

SKYbrary Partners:

Safety knowledge contributed by: